Regional Weather Roundup
Issued by NWS Goodland, KS

Home | Current Version | Previous Version | Text Only | Print | Product List | Glossary Off
Versions: 1 2 3 4 5 6 7 8 9 10 11 12 13 14 15 16 17 18 19 20 21 22 23 24 25 26 27 28 29 30 31 32 33 34 35 36 37 38 39 40 41 42 43 44 45 46 47 48 49 50

652
ASUS43 KGLD 281308
RWRGLD

GOODLAND FORECAST AREA HOURLY WEATHER ROUNDUP
NATIONAL WEATHER SERVICE GOODLAND KS
700 AM MDT THU JUL 28 2016

...OFFICIAL OBSERVATIONS...

CITY           SKY/WX    TMP DP  RH WIND       PRES   REMARKS
GOODLAND KS    MOSUNNY   67  54  63 S13       30.10R
HILL CITY KS   CLOUDY    69  67  93 E7        30.08R
IMPERIAL NEB   CLOUDY    65  63  93 SE5       30.11S
MCCOOK NEB     MOSUNNY   66  63  90 NE8       30.11R
AKRON CO       SUNNY     61  54  77 S15       30.14S
BURLINGTON CO  SUNNY     64  53  67 SE20      30.13F
LIMON CO       MOSUNNY   58  56  93 S9        30.23S
$$

...UNOFFICIAL OBSERVATIONS...

CITY           SKY/WX    TMP DP  RH WIND       PRES   REMARKS
COLBY KS       SUNNY     70  59  68 SW7       30.09R
LENORA KS        N/A     69  32  25 MISG        N/A
NORTON KS      SUNNY     68  63  83 E6        30.08S
KIT CARSON CO    N/A     65  55  69 MISG        N/A
YUMA CO          N/A     61  57  85 SW6         N/A
$$




USA.gov is the U.S. government's official web portal to all federal, state and local government web resources and services.